EW0608 Weather Reports


time (UTC)temp
C
wind
direction
speed
KPH
gust
KPH
rain 1hr
cm
rain 24hr
cm
rain mn
cm
humidity
%
barometer
mb
20260510203039 18 78 0.0 3.2 0.00 0.00 0.00 84 1013.3
20260510202839 18 78 0.0 3.2 0.00 0.00 0.00 86 1013.5
20260510202351 18 78 1.6 3.2 0.00 0.00 0.00 87 1013.5
20260510201843 18 5 0.0 0.0 0.00 0.00 0.00 91 1013.6
20260510201538 17 5 0.0 0.0 0.00 0.00 0.00 90 1013.3
20260510200851 18 5 0.0 6.4 0.00 0.00 0.00 88 1013.8
20260510200344 18 360 1.6 8.0 0.00 0.00 0.00 83 1013.7
20260510200053 18 325 3.2 8.0 0.00 0.00 0.00 81 1013.6
20260510195852 18 10 3.2 8.0 0.00 0.00 0.00 80 1013.9
20260510195345 19 98 1.6 6.4 0.00 0.00 0.00 74 1014.2
20260510194837 19 296 1.6 4.8 0.00 0.00 0.00 75 1013.6
20260510194551 19 26 0.0 4.8 0.00 0.00 0.00 72 1012.8
20260510194350 20 26 0.0 4.8 0.00 0.00 0.00 72 1013.0
20260510193844 20 74 1.6 6.4 0.00 0.00 0.00 71 1012.8
20260510193339 20 109 1.6 6.4 0.00 0.00 0.00 75 1012.8
20260510193054 19 209 0.0 0.0 0.00 0.00 0.00 74 1012.5
20260510192854 20 209 0.0 0.0 0.00 0.00 0.00 73 1012.9
20260510192345 20 209 0.0 1.6 0.00 0.00 0.00 73 1012.8
20260510191838 20 209 0.0 3.2 0.00 0.00 0.00 73 1012.8
20260510191557 19 209 0.0 3.2 0.00 0.00 0.00 74 1012.6
20260510191350 20 209 0.0 6.4 0.00 0.00 0.00 74 1013.0
20260510190904 20 208 1.6 6.4 0.00 0.00 0.00 71 1013.2
20260510190356 20 186 1.6 4.8 0.00 0.00 0.00 74 1013.2
20260510190052 20 246 1.6 4.8 0.00 0.00 0.00 72 1013.1
20260510185846 20 207 3.2 4.8 0.00 0.00 0.00 72 1013.3
20260510185339 20 86 1.6 4.8 0.00 0.00 0.00 79 1013.3
20260510184913 18 172 0.0 4.8 0.00 0.00 0.00 79 1013.4
20260510184544 18 172 1.6 4.8 0.00 0.00 0.00 81 1013.2
20260510184344 18 185 3.2 4.8 0.00 0.00 0.00 84 1013.4
20260510183837 18 165 0.0 3.2 0.00 0.00 0.00 88 1013.5
20260510183348 18 165 0.0 4.8 0.00 0.00 0.00 86 1013.5
20260510183043 18 165 1.6 4.8 0.00 0.00 0.00 84 1013.3
20260510182843 18 102 1.6 4.8 0.00 0.00 0.00 83 1013.5
20260510182415 18 210 0.0 3.2 0.00 0.00 0.00 81 1013.8
20260510181513 18 311 0.0 8.0 0.00 0.00 0.00 72 1013.3
20260510181412 19 313 1.6 8.0 0.00 0.00 0.00 71 1013.5
20260510180841 20 59 4.8 8.0 0.00 0.00 0.00 67 1013.5
20260510180045 21 329 3.2 6.4 0.00 0.00 0.00 59 1013.1
20260510175842 22 360 3.2 6.4 0.00 0.00 0.00 63 1013.2
20260510175355 22 351 1.6 4.8 0.00 0.00 0.00 59 1013.0
20260510174847 22 212 1.6 4.8 0.00 0.00 0.00 58 1012.9
20260510174541 22 212 3.2 4.8 0.00 0.00 0.00 54 1012.6
20260510174339 22 130 1.6 3.2 0.00 0.00 0.00 58 1012.8
20260510173852 22 130 0.0 4.8 0.00 0.00 0.00 57 1012.6
20260510173345 22 130 1.6 4.8 0.00 0.00 0.00 52 1012.5
20260510173036 22 129 0.0 4.8 0.00 0.00 0.00 53 1012.2
20260510172836 22 129 0.0 6.4 0.00 0.00 0.00 53 1012.5
20260510172348 22 119 3.2 6.4 0.00 0.00 0.00 52 1012.4
20260510171844 22 92 1.6 8.0 0.00 0.00 0.00 53 1012.5
20260510171542 22 92 1.6 8.0 0.00 0.00 0.00 53 1012.2
20260510170849 22 84 1.6 8.0 0.00 0.00 0.00 52 1012.6
20260510170341 22 88 1.6 8.0 0.00 0.00 0.00 53 1012.6
20260510170053 22 109 1.6 6.4 0.00 0.00 0.00 52 1012.4
20260510165852 22 40 3.2 6.4 0.00 0.00 0.00 52 1012.6
20260510165404 22 73 1.6 4.8 0.00 0.00 0.00 53 1012.6
20260510164854 23 72 1.6 4.8 0.00 0.00 0.00 51 1012.7
20260510164506 22 109 1.6 4.8 0.00 0.00 0.00 52 1012.6
20260510164344 23 280 1.6 4.8 0.00 0.00 0.00 52 1012.8
20260510163836 23 307 3.2 6.4 0.00 0.00 0.00 52 1012.8
20260510163348 22 236 3.2 6.4 0.00 0.00 0.00 55 1012.9
20260510163045 22 178 3.2 8.0 0.00 0.00 0.00 54 1012.7
20260510162840 23 124 1.6 8.0 0.00 0.00 0.00 54 1012.9
20260510162352 22 167 4.8 8.0 0.00 0.00 0.00 53 1013.0
20260510161905 22 161 3.2 8.0 0.00 0.00 0.00 56 1013.0
20260510161607 22 149 3.2 8.0 0.00 0.00 0.00 55 1012.9
20260510161355 22 53 0.0 4.8 0.00 0.00 0.00 55 1013.1
20260510160849 21 211 1.6 4.8 0.00 0.00 0.00 56 1013.1
20260510160340 21 69 1.6 4.8 0.00 0.00 0.00 57 1013.1
20260510160010 21 331 1.6 4.8 0.00 0.00 0.00 56 1012.9
20260510155909 21 331 1.6 8.0 0.00 0.00 0.00 56 1013.1
20260510155340 21 60 1.6 9.7 0.00 0.00 0.00 57 1013.1
20260510154913 21 161 4.8 8.0 0.00 0.00 0.00 56 1013.2
20260510154546 21 59 3.2 11.3 0.00 0.00 0.00 58 1012.9
20260510154344 21 95 1.6 11.3 0.00 0.00 0.00 57 1013.0
20260510153836 21 209 1.6 6.4 0.00 0.00 0.00 58 1013.0
20260510153348 21 50 1.6 8.0 0.00 0.00 0.00 58 1013.1
20260510153043 21 50 3.2 9.7 0.00 0.00 0.00 57 1012.9
20260510152841 21 47 4.8 9.7 0.00 0.00 0.00 58 1013.1
20260510152354 21 323 4.8 6.4 0.00 0.00 0.00 57 1013.1
20260510151846 21 71 3.2 11.3 0.00 0.00 0.00 59 1013.0
20260510151541 20 198 0.0 11.3 0.00 0.00 0.00 59 1012.9
20260510151339 21 138 1.6 11.3 0.00 0.00 0.00 60 1013.0
20260510150852 20 141 3.2 8.0 0.00 0.00 0.00 61 1013.0
20260510150346 20 327 3.2 9.7 0.00 0.00 0.00 60 1013.0
20260510150037 20 82 4.8 9.7 0.00 0.00 0.00 62 1012.8
20260510145836 20 166 0.0 4.8 0.00 0.00 0.00 64 1013.0
20260510145349 20 135 3.2 6.4 0.00 0.00 0.00 66 1013.0
20260510144842 20 156 1.6 6.4 0.00 0.00 0.00 71 1012.9
20260510144523 18 190 0.0 1.6 0.00 0.00 0.00 72 1012.8
20260510144416 18 190 0.0 1.6 0.00 0.00 0.00 75 1012.9
20260510143847 18 190 0.0 1.6 0.00 0.00 0.00 74 1012.8
20260510143346 18 190 0.0 1.6 0.00 0.00 0.00 72 1012.9
20260510143041 18 190 0.0 1.6 0.00 0.00 0.00 72 1012.8
20260510142839 18 190 0.0 0.0 0.00 0.00 0.00 72 1013.0
20260510142352 17 190 0.0 0.0 0.00 0.00 0.00 73 1013.0
20260510141844 17 190 0.0 1.6 0.00 0.00 0.00 74 1013.0
20260510141520 17 190 0.0 1.6 0.00 0.00 0.00 75 1012.9
20260510141418 17 190 0.0 1.6 0.00 0.00 0.00 76 1013.0
20260510140006 16 190 0.0 1.6 0.00 0.00 0.00 77 1012.9
20260510134504 15 190 0.0 1.6 0.00 0.00 0.00 78 1012.9
20260510133102 14 190 0.0 1.6 0.00 0.00 0.00 80 1012.9
20260510131559 13 190 0.0 3.2 0.00 0.00 0.00 82 1012.9
20260510130052 12 190 0.0 0.0 0.00 0.00 0.00 86 1013.0
20260510124546 11 190 0.0 0.0 0.00 0.00 0.00 90 1013.0
20260510123043 11 190 0.0 1.6 0.00 0.00 0.00 92 1012.9
20260510121539 10 190 0.0 0.0 0.00 0.00 0.00 96 1012.5
20260510120037 8 190 0.0 0.0 0.00 0.00 0.00 97 1012.5
20260510114536 7 190 0.0 1.6 0.00 0.00 0.00 98 1012.7
20260510113039 6 282 0.0 0.0 0.00 0.00 0.00 98 1012.6
20260510111540 6 282 0.0 0.0 0.00 0.00 0.00 98 1012.5
20260510110038 5 282 0.0 0.0 0.00 0.00 0.00 97 1012.3
20260510104530 5 282 0.0 0.0 0.00 0.00 0.00 98 1012.2
20260510103027 5 282 0.0 0.0 0.00 0.00 0.00 97 1011.9
20260510101525 5 282 0.0 0.0 0.00 0.00 0.00 97 1011.6
20260510100022 5 282 0.0 0.0 0.00 0.00 0.00 97 1011.4
20260510094519 5 282 0.0 0.0 0.00 0.00 0.00 97 1011.2
20260510093025 5 282 0.0 0.0 0.00 0.00 0.00 97 1011.0
20260510091515 6 282 0.0 0.0 0.00 0.00 0.00 97 1010.9
20260510090022 6 282 0.0 0.0 0.00 0.00 0.00 97 1010.9
20260510084517 6 282 0.0 0.0 0.00 0.00 0.00 97 1010.7
20260510083012 6 282 0.0 0.0 0.00 0.00 0.00 97 1010.7
20260510081510 6 282 0.0 0.0 0.00 0.00 0.00 97 1010.6
20260510080114 6 282 0.0 0.0 0.00 0.00 0.00 97 1010.6
20260510074507 6 282 0.0 0.0 0.00 0.00 0.00 97 1010.5
20260510073007 6 282 0.0 0.0 0.00 0.00 0.00 97 1010.7
20260510071506 6 282 0.0 0.0 0.00 0.00 0.00 97 1010.5
20260510070004 6 282 0.0 0.0 0.00 0.00 0.00 96 1010.4
20260510064502 6 282 0.0 0.0 0.00 0.00 0.00 96 1010.3
20260510063001 7 282 0.0 0.0 0.00 0.00 0.00 96 1010.3
20260510061559 7 282 0.0 0.0 0.00 0.00 0.00 96 1010.3
20260510060057 7 282 0.0 0.0 0.00 0.00 0.00 97 1010.4
20260510054555 7 282 0.0 0.0 0.00 0.00 0.00 96 1010.5
20260510053056 7 282 0.0 3.2 0.00 0.00 0.00 96 1010.5
20260510051556 7 282 0.0 0.0 0.00 0.00 0.00 96 1010.5
20260510050050 8 282 0.0 0.0 0.00 0.00 0.00 96 1010.5
20260510044605 8 282 0.0 0.0 0.00 0.00 0.00 95 1010.3
20260510043045 8 282 0.0 0.0 0.00 0.00 0.00 95 1010.2
20260510041847 8 282 0.0 0.0 0.00 0.00 0.00 95 1010.3
20260510041541 8 282 0.0 0.0 0.00 0.00 0.00 94 1010.1
20260510041341 9 282 0.0 0.0 0.00 0.00 0.00 94 1010.3
20260510040853 9 282 0.0 0.0 0.00 0.00 0.00 95 1010.3
20260510040406 9 282 0.0 1.6 0.00 0.00 0.00 95 1010.3
20260510040055 9 282 0.0 1.6 0.00 0.00 0.00 95 1010.2
20260510035854 9 282 0.0 1.6 0.00 0.00 0.00 95 1010.3
20260510035346 9 282 0.0 0.0 0.00 0.00 0.00 95 1010.3
20260510034838 10 282 0.0 0.0 0.00 0.00 0.00 95 1010.0
20260510034550 9 282 0.0 3.2 0.00 0.00 0.00 95 1010.0
20260510034350 10 282 0.0 3.2 0.00 0.00 0.00 94 1010.3
20260510033843 10 282 0.0 0.0 0.00 0.00 0.00 94 1010.3
20260510033355 10 282 0.0 0.0 0.00 0.00 0.00 94 1010.3
20260510033048 9 282 0.0 0.0 0.00 0.00 0.00 94 1010.1
20260510032848 10 282 0.0 0.0 0.00 0.00 0.00 94 1010.3
20260510032344 10 282 0.0 0.0 0.00 0.00 0.00 94 1010.2
20260510031912 10 282 0.0 0.0 0.00 0.00 0.00 94 1010.2
20260510031547 10 282 0.0 0.0 0.00 0.00 0.00 93 1010.0
20260510031346 10 282 0.0 0.0 0.00 0.00 0.00 93 1010.2
20260510030839 10 282 0.0 0.0 0.00 0.00 0.00 93 1010.2
20260510030354 10 282 0.0 1.6 0.00 0.00 0.00 92 1010.2
20260510030007 10 282 0.0 1.6 0.00 0.00 0.00 92 1010.0
20260510025902 10 282 0.0 1.6 0.00 0.00 0.00 92 1010.1
20260510025355 10 282 0.0 1.6 0.00 0.00 0.00 92 1010.2
20260510024847 10 282 0.0 3.2 0.00 0.00 0.00 92 1010.2
20260510024542 10 282 0.0 3.2 0.00 0.00 0.00 92 1010.1
20260510024340 11 282 0.0 0.0 0.00 0.00 0.00 92 1010.2
20260510023852 11 282 0.0 0.0 0.00 0.00 0.00 92 1010.1
20260510023345 11 282 0.0 0.0 0.00 0.00 0.00 91 1010.2
20260510023059 10 282 0.0 0.0 0.00 0.00 0.00 91 1009.9
20260510022856 11 282 0.0 0.0 0.00 0.00 0.00 91 1010.1
20260510022349 11 282 0.0 0.0 0.00 0.00 0.00 91 1010.0
20260510021842 11 282 0.0 0.0 0.00 0.00 0.00 90 1009.9
20260510021556 11 282 0.0 0.0 0.00 0.00 0.00 90 1009.8
20260510021356 11 282 0.0 0.0 0.00 0.00 0.00 90 1009.9
20260510020847 11 282 0.0 0.0 0.00 0.00 0.00 89 1009.8
20260510020401 11 282 0.0 0.0 0.00 0.00 0.00 88 1009.8
20260510020051 11 282 0.0 0.0 0.00 0.00 0.00 88 1009.4
20260510015850 11 282 0.0 0.0 0.00 0.00 0.00 88 1009.6
20260510015341 12 282 0.0 0.0 0.00 0.00 0.00 88 1009.6
20260510014834 12 282 0.0 0.0 0.00 0.00 0.00 88 1009.6
20260510014509 12 282 0.0 0.0 0.00 0.00 0.00 87 1009.2
20260510014409 12 282 0.0 0.0 0.00 0.00 0.00 87 1009.4
20260510013840 12 282 0.0 0.0 0.00 0.00 0.00 86 1009.3
20260510013354 12 282 0.0 0.0 0.00 0.00 0.00 86 1009.1
20260510013007 12 282 0.0 0.0 0.00 0.00 0.00 85 1008.9
20260510012846 12 282 0.0 0.0 0.00 0.00 0.00 85 1009.1
20260510012338 12 282 0.0 0.0 0.00 0.00 0.00 85 1009.0
20260510011851 12 282 0.0 0.0 0.00 0.00 0.00 84 1008.9
20260510011552 12 282 0.0 0.0 0.00 0.00 0.00 84 1008.6
20260510011344 13 282 0.0 0.0 0.00 0.00 0.00 83 1008.8
20260510010856 13 282 0.0 0.0 0.00 0.00 0.00 83 1008.7
20260510010350 13 282 0.0 3.2 0.00 0.00 0.00 82 1008.6
20260510010050 13 282 0.0 3.2 0.00 0.00 0.00 81 1008.3
20260510005843 13 282 1.6 3.2 0.00 0.00 0.00 81 1008.5
20260510005354 13 282 526.3 526.3 0.00 0.00 0.00 81 1008.2
20260510004908 13 282 0.0 3.2 0.00 0.00 0.00 80 1008.3
20260510004539 13 282 0.0 3.2 0.00 0.00 0.00 79 1008.0
20260510004339 14 282 1.6 3.2 0.00 0.00 0.00 79 1008.2
20260510003851 14 282 0.0 0.0 0.00 0.00 0.00 78 1008.2
20260510003344 14 282 0.0 0.0 0.00 0.00 0.00 78 1008.1
20260510003037 14 282 0.0 0.0 0.00 0.00 0.00 77 1007.8
20260510002837 14 282 0.0 0.0 0.00 0.00 0.00 77 1008.0
20260510002348 15 282 0.0 0.0 0.00 0.00 0.00 76 1007.9
20260510001841 15 282 0.0 0.0 0.00 0.00 0.00 75 1008.0
20260510001556 15 282 0.0 0.0 0.00 0.00 0.00 74 1007.7
20260510001353 15 282 0.0 0.0 0.00 0.00 0.00 75 1007.9
20260510000847 15 282 0.0 0.0 0.00 0.00 0.00 73 1007.7
20260510000341 16 282 0.0 0.0 0.00 0.00 0.00 72 1007.7
20260510000030 15 282 0.0 0.0 0.00 0.00 0.00 72 1007.3
20260509235929 16 282 0.0 0.0 0.00 0.00 0.00 71 1007.7
20260509235337 16 282 0.0 0.0 0.00 0.00 0.00 72 1007.6
20260509234850 16 282 0.0 0.0 0.00 0.00 0.00 71 1007.6
20260509234547 16 282 0.0 0.0 0.00 0.00 0.00 69 1007.3
20260509234343 17 282 0.0 0.0 0.00 0.00 0.00 68 1007.6
20260509233915 17 282 0.0 0.0 0.00 0.00 0.00 68 1007.7
20260509233407 17 282 0.0 0.0 0.00 0.00 0.00 67 1007.7
20260509233039 17 282 0.0 0.0 0.00 0.00 0.00 68 1007.4
20260509232839 17 282 0.0 0.0 0.00 0.00 0.00 67 1007.7
20260509232351 17 282 0.0 0.0 0.00 0.00 0.00 66 1007.7
20260509231903 18 282 0.0 1.6 0.00 0.00 0.00 65 1007.7
20260509231556 18 282 0.0 3.2 0.00 0.00 0.00 64 1007.3
20260509231355 18 282 0.0 3.2 0.00 0.00 0.00 65 1007.6
20260509230846 18 282 1.6 3.2 0.00 0.00 0.00 63 1007.6
20260509230418 18 282 0.0 0.0 0.00 0.00 0.00 62 1007.7
20260509230047 18 282 0.0 0.0 0.00 0.00 0.00 62 1007.4
20260509225846 19 282 0.0 3.2 0.00 0.00 0.00 60 1007.7
20260509225339 19 282 0.0 3.2 0.00 0.00 0.00 58 1007.7
20260509224912 20 282 1.6 3.2 0.00 0.00 0.00 57 1007.8
20260509224545 19 282 0.0 3.2 0.00 0.00 0.00 55 1007.5
20260509224343 20 282 1.6 3.2 0.00 0.00 0.00 56 1007.9
20260509223856 20 175 0.0 3.2 0.00 0.00 0.00 58 1007.9
20260509223347 20 175 0.0 3.2 0.00 0.00 0.00 55 1007.9
20260509223041 20 175 1.6 3.2 0.00 0.00 0.00 54 1007.6
20260509222841 20 175 0.0 3.2 0.00 0.00 0.00 54 1007.9
20260509222433 20 175 1.6 3.2 0.00 0.00 0.00 55 1007.9
20260509221901 20 175 0.0 3.2 0.00 0.00 0.00 57 1007.8
20260509221552 20 175 0.0 3.2 0.00 0.00 0.00 57 1007.5
20260509221351 20 175 1.6 3.2 0.00 0.00 0.00 56 1007.9
20260509220844 20 316 1.6 4.8 0.00 0.00 0.00 58 1007.9
20260509220358 20 63 1.6 4.8 0.00 0.00 0.00 57 1007.9
20260509220047 20 349 3.2 4.8 0.00 0.00 0.00 57 1007.6
20260509215847 20 279 3.2 4.8 0.00 0.00 0.00 59 1007.9
20260509215441 20 81 1.6 6.4 0.00 0.00 0.00 57 1007.9
20260509214847 20 307 1.6 4.8 0.00 0.00 0.00 57 1007.9
20260509214542 20 306 1.6 4.8 0.00 0.00 0.00 58 1007.6
20260509214340 20 306 3.2 4.8 0.00 0.00 0.00 58 1007.9
20260509213851 20 63 1.6 8.0 0.00 0.00 0.00 56 1007.9
20260509213344 20 98 3.2 8.0 0.00 0.00 0.00 58 1007.9
20260509213037 20 63 1.6 4.8 0.00 0.00 0.00 57 1007.6
20260509212836 20 131 1.6 4.8 0.00 0.00 0.00 57 1007.9
20260509212348 20 46 1.6 6.4 0.00 0.00 0.00 58 1007.9
20260509211901 20 46 3.2 6.4 0.00 0.00 0.00 60 1007.9
20260509211555 20 200 0.0 3.2 0.00 0.00 0.00 59 1007.6
20260509211352 20 200 1.6 3.2 0.00 0.00 0.00 60 1007.9
20260509210849 19 310 1.6 4.8 0.00 0.00 0.00 61 1008.0
20260509210344 20 310 1.6 6.4 0.00 0.00 0.00 59 1007.9
20260509210053 19 310 1.6 6.4 0.00 0.00 0.00 59 1007.6
20260509205854 20 51 1.6 6.4 0.00 0.00 0.00 59 1007.9
20260509205407 20 38 0.0 4.8 0.00 0.00 0.00 61 1007.9
20260509204840 20 46 3.2 4.8 0.00 0.00 0.00 61 1007.9
20260509204530 19 37 1.6 4.8 0.00 0.00 0.00 62 1007.6
20260509203855 20 50 1.6 4.8 0.00 0.00 0.00 61 1007.9
20260509203347 19 5 1.6 4.8 0.00 0.00 0.00 61 1007.9
20260509203102 18 5 1.6 4.8 0.00 0.00 0.00 61 1007.6